EN

Hourly Weather Toowoomba

Today, 24 November, Tuesday

Time Temperature Precipitation Wind Pressure Humidity
00:00 +22°C° 0 mm 1 mps 719 mmHg 47%
01:00 +22°C° 0 mm 1 mps 719 mmHg 53%
02:00 +21°C° 0 mm 1 mps 718 mmHg 56%
03:00 +21°C° 0 mm 1 mps 718 mmHg 59%
04:00 +20°C° 0 mm 3 mps 718 mmHg 62%
05:00 +21°C° 0.1 mm 2 mps 718 mmHg 61%
06:00 +24°C° 0.1 mm 2 mps 719 mmHg 61%
07:00 +25°C° 0.1 mm 2 mps 720 mmHg 60%
08:00 +27°C° 0 mm 2 mps 720 mmHg 52%
09:00 +29°C° 0 mm 3 mps 720 mmHg 43%
10:00 +33°C° 0 mm 4 mps 720 mmHg 35%
11:00 +34°C° 0 mm 4 mps 719 mmHg 32%
12:00 +35°C° 0 mm 4 mps 719 mmHg 29%
13:00 +37°C° 0 mm 4 mps 718 mmHg 26%
14:00 +36°C° 0 mm 4 mps 718 mmHg 30%
15:00 +35°C° 0 mm 3 mps 718 mmHg 33%
16:00 +33°C° 0 mm 3 mps 717 mmHg 37%
17:00 +29°C° 1.6 mm 4 mps 718 mmHg 55%
18:00 +24°C° 1.6 mm 6 mps 718 mmHg 74%
19:00 +20°C° 1.6 mm 7 mps 718 mmHg 92%
20:00 +20°C° 0.5 mm 7 mps 719 mmHg 93%
21:00 +18°C° 0.5 mm 7 mps 720 mmHg 93%
22:00 +18°C° 0.5 mm 7 mps 720 mmHg 94%
23:00 +19°C° 0 mm 6 mps 720 mmHg 94%

Tomorrow, 25 November, Wednesday

Time Temperature Precipitation Wind Pressure Humidity
00:00 +19°C° 0 mm 6 mps 720 mmHg 94%
01:00 +17°C° 0 mm 6 mps 720 mmHg 94%
02:00 +17°C° 0 mm 5 mps 720 mmHg 93%
03:00 +17°C° 0 mm 5 mps 720 mmHg 93%
04:00 +18°C° 0 mm 4 mps 720 mmHg 93%
05:00 +17°C° 0 mm 5 mps 720 mmHg 88%
06:00 +19°C° 0 mm 5 mps 721 mmHg 83%
07:00 +20°C° 0 mm 5 mps 722 mmHg 79%
08:00 +21°C° 0 mm 5 mps 722 mmHg 71%
09:00 +23°C° 0 mm 5 mps 722 mmHg 64%
10:00 +26°C° 0 mm 5 mps 722 mmHg 56%
11:00 +27°C° 0 mm 5 mps 722 mmHg 54%
12:00 +27°C° 0 mm 5 mps 721 mmHg 53%
13:00 +28°C° 0 mm 4 mps 721 mmHg 51%
14:00 +27°C° 0 mm 5 mps 721 mmHg 55%
15:00 +26°C° 0 mm 5 mps 721 mmHg 58%
16:00 +25°C° 0 mm 5 mps 721 mmHg 62%
17:00 +23°C° 0 mm 5 mps 721 mmHg 66%
18:00 +21°C° 0 mm 5 mps 721 mmHg 71%
19:00 +20°C° 0 mm 5 mps 722 mmHg 76%
20:00 +19°C° 0 mm 5 mps 722 mmHg 79%
21:00 +19°C° 0 mm 5 mps 723 mmHg 83%
22:00 +17°C° 0 mm 5 mps 723 mmHg 87%
23:00 +18°C° 0 mm 4 mps 723 mmHg 89%

Day after tomorrow, 26 November, Thursday

Time Temperature Precipitation Wind Pressure Humidity
00:00 +17°C° 0 mm 4 mps 722 mmHg 91%
01:00 +17°C° 0 mm 3 mps 722 mmHg 93%
02:00 +16°C° 0 mm 3 mps 722 mmHg 94%
03:00 +16°C° 0 mm 3 mps 722 mmHg 95%
04:00 +16°C° 0 mm 2 mps 722 mmHg 95%
05:00 +17°C° 0 mm 2 mps 723 mmHg 87%
06:00 +19°C° 0 mm 3 mps 723 mmHg 78%
07:00 +20°C° 0 mm 3 mps 724 mmHg 70%
08:00 +24°C° 0 mm 3 mps 724 mmHg 61%
09:00 +26°C° 0 mm 2 mps 724 mmHg 52%
10:00 +28°C° 0 mm 2 mps 724 mmHg 43%
11:00 +30°C° 0 mm 2 mps 724 mmHg 39%
12:00 +31°C° 0 mm 2 mps 723 mmHg 36%
13:00 +33°C° 0 mm 1 mps 723 mmHg 32%
14:00 +32°C° 0 mm 2 mps 723 mmHg 33%
15:00 +32°C° 0 mm 2 mps 722 mmHg 34%
16:00 +31°C° 0 mm 2 mps 722 mmHg 35%
17:00 +29°C° 0 mm 3 mps 723 mmHg 46%
18:00 +26°C° 0 mm 4 mps 723 mmHg 57%
19:00 +22°C° 0 mm 5 mps 723 mmHg 68%
20:00 +21°C° 0 mm 5 mps 723 mmHg 74%
21:00 +20°C° 0 mm 4 mps 724 mmHg 79%
22:00 +18°C° 0 mm 3 mps 724 mmHg 84%
23:00 +18°C° 0 mm 3 mps 724 mmHg 86%

27 November, Friday

Time Temperature Precipitation Wind Pressure Humidity
00:00 +17°C° 0 mm 2 mps 724 mmHg 88%
01:00 +17°C° 0 mm 2 mps 724 mmHg 90%
02:00 +17°C° 0 mm 2 mps 724 mmHg 92%
03:00 +18°C° 0 mm 1 mps 724 mmHg 93%
04:00 +16°C° 0 mm 1 mps 724 mmHg 94%
05:00 +18°C° 0 mm 2 mps 725 mmHg 88%
06:00 +19°C° 0 mm 2 mps 725 mmHg 81%
07:00 +21°C° 0 mm 3 mps 726 mmHg 75%
08:00 +24°C° 0 mm 3 mps 726 mmHg 66%
09:00 +26°C° 0 mm 4 mps 726 mmHg 57%
10:00 +28°C° 0 mm 4 mps 727 mmHg 48%
11:00 +29°C° 0 mm 4 mps 726 mmHg 43%
12:00 +30°C° 0 mm 5 mps 726 mmHg 39%
13:00 +32°C° 0 mm 5 mps 726 mmHg 34%
14:00 +32°C° 0 mm 5 mps 726 mmHg 35%
15:00 +30°C° 0 mm 6 mps 725 mmHg 36%
16:00 +30°C° 0 mm 6 mps 725 mmHg 37%
17:00 +27°C° 0 mm 6 mps 725 mmHg 44%
18:00 +23°C° 0 mm 5 mps 726 mmHg 52%
19:00 +21°C° 0 mm 5 mps 726 mmHg 59%
20:00 +20°C° 0 mm 5 mps 726 mmHg 66%
21:00 +18°C° 0 mm 4 mps 727 mmHg 74%
22:00 +17°C° 0 mm 4 mps 727 mmHg 81%
23:00 +17°C° 0 mm 4 mps 727 mmHg 85%

28 November, Saturday

Time Temperature Precipitation Wind Pressure Humidity
00:00 +16°C° 0 mm 3 mps 726 mmHg 89%
01:00 +16°C° 0 mm 3 mps 726 mmHg 94%
02:00 +14°C° 0 mm 3 mps 726 mmHg 94%
03:00 +14°C° 0 mm 3 mps 726 mmHg 95%
04:00 +14°C° 0 mm 3 mps 725 mmHg 96%
05:00 +17°C° 0 mm 3 mps 726 mmHg 87%
06:00 +18°C° 0 mm 3 mps 726 mmHg 79%
07:00 +20°C° 0 mm 4 mps 727 mmHg 71%
08:00 +22°C° 0 mm 4 mps 727 mmHg 61%
09:00 +26°C° 0 mm 4 mps 727 mmHg 50%
10:00 +28°C° 0 mm 4 mps 727 mmHg 40%
11:00 +30°C° 0 mm 4 mps 727 mmHg 36%
12:00 +32°C° 0 mm 4 mps 726 mmHg 32%
13:00 +34°C° 0 mm 4 mps 726 mmHg 28%
14:00 +33°C° 0 mm 4 mps 725 mmHg 29%
15:00 +33°C° 0 mm 4 mps 725 mmHg 29%
16:00 +33°C° 0 mm 5 mps 724 mmHg 30%
17:00 +29°C° 0 mm 4 mps 724 mmHg 40%
18:00 +26°C° 0 mm 4 mps 724 mmHg 50%
19:00 +22°C° 0 mm 3 mps 724 mmHg 60%
20:00 +21°C° 0 mm 3 mps 725 mmHg 67%
21:00 +20°C° 0 mm 2 mps 725 mmHg 74%
22:00 +19°C° 0 mm 2 mps 725 mmHg 81%
23:00 +18°C° 0 mm 2 mps 725 mmHg 84%

29 November, Sunday

Time Temperature Precipitation Wind Pressure Humidity
00:00 +17°C° 0 mm 2 mps 725 mmHg 87%
01:00 +17°C° 0 mm 2 mps 724 mmHg 90%
02:00 +16°C° 0 mm 1 mps 724 mmHg 91%
03:00 +16°C° 0 mm 1 mps 724 mmHg 92%
04:00 +14°C° 0 mm 0 mps 724 mmHg 93%
05:00 +18°C° 0 mm 1 mps 724 mmHg 82%
06:00 +21°C° 0 mm 1 mps 725 mmHg 71%
07:00 +23°C° 0 mm 1 mps 725 mmHg 60%
08:00 +26°C° 0 mm 1 mps 725 mmHg 50%
09:00 +30°C° 0 mm 1 mps 725 mmHg 39%
10:00 +33°C° 0 mm 1 mps 725 mmHg 28%
11:00 +34°C° 0 mm 1 mps 725 mmHg 26%
12:00 +36°C° 0 mm 1 mps 724 mmHg 24%
13:00 +37°C° 0 mm 1 mps 724 mmHg 22%
14:00 +37°C° 0 mm 1 mps 723 mmHg 22%
15:00 +38°C° 0 mm 2 mps 723 mmHg 22%
16:00 +38°C° 0 mm 2 mps 722 mmHg 21%
17:00 +35°C° 0 mm 2 mps 722 mmHg 29%
18:00 +31°C° 0 mm 2 mps 722 mmHg 37%
19:00 +28°C° 0 mm 2 mps 722 mmHg 45%
20:00 +26°C° 0 mm 2 mps 723 mmHg 52%
21:00 +25°C° 0 mm 2 mps 723 mmHg 58%
22:00 +24°C° 0 mm 2 mps 723 mmHg 65%
23:00 +23°C° 0 mm 1 mps 723 mmHg 68%
Show more